"Pseudo-MPEC" for P11bVQM

Created 2021 Feb 4 18:07:06 UT using Find_Orb

Click here for an explanation of pseudo-MPECs

 
 Astrometry: 
     P11bVQM  C2020 06 287LX%yoJ6MTpS._gL%@rmMA9;H'y^:U1L40B_D2Un?cS,iX;LT\eIF51
     P11bVQM  C2020 06 28^lL7+@ml'h@[2,j'%-4ewml8sFO8o3^uKior_Sf*t!=Zkx`x2KOYF51
     P11bVQM  C2020 06 28qB,qqDg^]cL2[2N5RXc-Owx']Pnc'ZH4R?2s#oigvUb)kn.!E,yMF51
     P11bVQM  C2020 10 16.50744 08 27 06.43 +14 20 14.5    ~1FLb       VNEOCPG96
     P11bVQM  C2020 10 16.51123 08 27 07.08 +14 20 11.1    ~1FLb 21.5 GVNEOCPG96
     P11bVQM  C2020 10 16.51503 08 27 07.68 +14 20 07.3    ~1FLb       VNEOCPG96
     P11bVQM  C2020 11 15.50124 09 29 19.96 +07 03 08.7    ~1FLb 21.8 GVNEOCPG96
     P11bVQM  C2020 11 15.51064 09 29 20.74 +07 03 00.8    ~1FLb 22.4 GVNEOCPG96
     P11bVQM  C2020 12 21.43438 09 59 34.06 +00 59 28.5    ~1FLb 21.0 GVNEOCPG96
     P11bVQM  C2020 12 21.43954 09 59 34.08 +00 59 26.1    ~1FLb 22.3 GVNEOCPG96
     P11bVQM  C2020 12 21.44470 09 59 34.01 +00 59 24.7    ~1FLb 22.4 GVNEOCPG96
     P11bVQM  C2021 01 11COA`/HAstrometryAW6Mv#TriuHEQ0(CXx+Yx72K5FuKHp)9CYwgF51
     P11bVQM  C2021 01 11hg7fn!HkZGvmEhJ#BpRmrIP1FdMDQenS+.S-h)\yqIN^s'+lP6WPF51
     P11bVQM  C2021 01 11+tQ!9y.D;xH_R,uRW7U,OOg4uq$,G$kv0l5/T4%KfM03_JkPQY/mF51
     P11bVQM  C2021 01 12.38069 09 50 21.13 +00 14 05.1    ~1FLb 22.3 GVNEOCPG96
     P11bVQM  C2021 01 12.38584 09 50 20.83 +00 14 04.5    ~1FLb 21.7 GVNEOCPG96
     P11bVQM  C2021 01 12.39099 09 50 20.56 +00 14 06.0    ~1FLb 21.4 GVNEOCPG96
     P11bVQM  C2021 01 12^5rj6P\2`(J]6O.rtjWE[aKf@4*grs9b/jDv*'xTdh)LD,DPU=1BF51
     P11bVQM  C2021 01 12Q\V[IN.=7q-5m7EFZ3O,15PPe+GvGjM]FbauJ$fBe!iVr5RHR_ZgF51
     P11bVQM  C2021 01 125dSu1)v!1ZMuwxSctcN6xQC!](5JqyWld;i@#BSx?+Q\%ITCwEA(F51
     P11bVQM |C2021 01 13hBepWjg0G4u#;BZ7v20[=Faf^=E%Fg1]3U%x#mMsJB*YliM35hyi807
     P11bVQM |C2021 01 13Li,Vb(nu]Ms:@4jBPN!BDDIW38V#LlJC2Kpb.w5I=6]aXgiZc3$2807
     P11bVQM |C2021 01 13j8JoC';mJ=uhh)e#,]9ixLVh,?!dRFVV%y'@GQ8'odELp\@`[lp#807
     P11bVQM KC2021 01 13R6XpBX'RY,,`'Sl?4rE]6D/-')GO=s[-QR)036i?B)Ou?cHdF^c/H21
     P11bVQM KC2021 01 13Ejml,B0Y$q00!tC7c3mqB6YjUY)hN.5AnX+M6V7FW2CHu95B0+eGH21
     P11bVQM KC2021 01 13d/VC8tfg(!bP3mWI#nI5F]V:MxJX=KwM'teU`,]ngO;DS?9VTs#kH21
     P11bVQM KC2021 01 13.38242 09 49 28.09 +00 16 01.6    ~1FLb       oNEOCP691
     P11bVQM KC2021 01 13.38691 09 49 27.84 +00 16 02.9    ~1FLb       oNEOCP691
     P11bVQM ^C2021 01 13.41237809 49 26.802+00 16 07.80   ~1FLb 20.97GVNEOCP568
     P11bVQM ^C2021 01 13.41335509 49 26.742+00 16 07.92   ~1FLb 21.01GVNEOCP568
     P11bVQM ^C2021 01 13.41434409 49 26.691+00 16 08.06   ~1FLb 21.00GVNEOCP568
     P11bVQM KC2021 01 13O=NAQkG(r(^^=juY9cbTaosL'tOs#Fk+gvwh$Iq'-UDRPWkmsyUiN51
     P11bVQM KC2021 01 13M/;T]D'ajsl1oCNmqUTS`0d+$]+32BufZ?HAcAguj1uXFMfLZM\xN51
     P11bVQM KC2021 01 13X:6=MOJlp*1%u_lJ)WyiE)VKd]a;VRY)Ib-;XkLvp!5=%sN$ur#$N51
     P11bVQM ^C2021 01 14.47357809 48 28.274+00 18 35.81   ~1FLb 21.11GVNEOCP568
     P11bVQM ^C2021 01 14.47479109 48 28.198+00 18 36.01   ~1FLb 21.14GVNEOCP568
     P11bVQM ^C2021 01 14.47604109 48 28.128+00 18 36.16   ~1FLb 21.12GVNEOCP568
     P11bVQM *C2021 01 14NNB16_Fk9O:7UZ(\WS7FJ=?RA:JEsRMo==TDc7m:9*Jtf,+sC+C:E10
     P11bVQM *C2021 01 14Kv6?[lS.bppnip,\1y@[M-A2$YCTobredacted;T*U-l=Xr3*fxoE10
     P11bVQM *C2021 01 14f?*9KL`iDdgK)sU^ZU8NCsj'_iv%b?B+E(tCmQ019^2R?4a1b**SE10
     P11bVQM KC2021 01 161DvaI8ABZLAb!dU,NA.h%@tx.[0Kfn$QlTmF48;ZhpxxMs0oR+iQL01
     P11bVQM KC2021 01 16mJ;6/vBP5rv#dVrDyhclickwQjJJU?:.--2HL#XE4S4`)kJ:dI9,L01
     P11bVQM *C2021 01 16FDwJn,CJFQX-=Y@8\?iSfLyk@c:3o:WFdKR-PR8.`UhsP[/oaR#(E10
     P11bVQM *C2021 01 16YMyeg34[D[yJg`txbZ-P-71q-MI0/\2\6Q##e^G7qBwquYP\d]tOE10
     P11bVQM *C2021 01 16T[Xk1:WGP.J-MbU(yLJvxfKWbuS6K.q'@b94heres:e'er.''6'TE10
     P11bVQM |C2021 01 18`W,]cBE9v[d^,k$n^8gyWH*0yeGZ?a8KhOi0N\`/FD;kcPo*),!d807
     P11bVQM |C2021 01 18P=5o%MumVW*TrmpbEsKuB/XHo331hcO#2.*aU`Y2j3*]g!y3NJbJ807
     P11bVQM |C2021 01 183ur(._mvHvy5*)v_i0L3C0JeeIxmM:=:56Bxu6txfN3qWc0!s\4q807
     P11bVQM 1C2021 01 22G962b4j(w*r3Mpc=ja)forNTP7?QeU?\2riO`I?BFI:ZP0wGU^+MQ62
     P11bVQM 1C2021 01 22f9##X.h4($jnPYCj(b3OfMc8:GxItbRAA:d/vByksY4c;wPDcXaYQ62
     P11bVQM |C2021 01 26p!wqSFkqcwm^8WmhyFYLYnjuE@sbx[AH6ssjse;\.@T?gCs4VEmJ807
     P11bVQM |C2021 01 265hI01bQ-eg^1y#M6@5VNUDqN2(M%RcHVMdg5;t(T9nTAj\V1ex\m807
     P11bVQM |C2021 01 260dA6q^8M1:Fqi!ywnm+0huGyPXdNnX9Yy)*]AexplanationWHCK807
     P11bVQM KC2021 02 03H:n#mlq;w()MO\WaG+UYxh2'rIHOqkU?_Iw-onHmP+tYhQ@i6PH5H36
     P11bVQM KC2021 02 03r4k]et.0)'pS$Ws%o#0C]RtWA1aCFZW%n[yl)^6bsl5Rb9b_PoZ-H36

Station data:
(568) Mauna Kea  (N19.826116 W155.472200)  US/Hawaii.
(691) Steward Observatory, Kitt Peak - Spacewatch  (N31.962174 W111.600327)
   US/Arizona.  Observer J. V. Scotti. 0.9-m f/3 reflector + CCD.
(807) Cerro Tololo Observatory, La Serena  (S30.169136 W70.805900)  Chile.
(E10) Siding Spring-Faulkes Telescope South  (S31.273173 E149.070280)
   Australia/NSW.
(F51) Pan-STARRS 1, Haleakala  (N20.707235 W156.255910)  US/Hawaii.
   Observers N. Primak, A. Schultz, S. Watters, J. Thiel, T. Goggia. Measurer
   PS1 Science Consortium. 1.8-m Ritchey-Chrétien + CCD.
(G96) Mt. Lemmon Survey  (N32.442754 W110.788720)  US/Arizona.  Observers T.
   A. Pruyne, B. M. Africano, E. J. Christensen, G. A. Farneth, D. C. Fuls,
   A. R. Gibbs, A. D. Grauer, H. Gröller, J. A. Johnson, R. A. Kowalski, S.
   M. Larson, G. J. Leonard, D. Rankin, R. L. Seaman, F. C. Shelly. 1.5-m
   reflector + 10K CCD.
(H21) Astronomical Research Observatory, Westfield  (N39.483057 W87.968270)
   US/Illinois. 0.76-m f/3.0 astrograph + CCD.
(H36) Sandlot Observatory, Scranton  (N38.797693 W95.706400)  US/Kansas.
   Observer G. Hug. 0.56-m reflector + CCD.
(L01) Višnjan Observatory, Tičan  (N45.290900 E13.749300)  Croatia.
   Observers K. Korlević, E. Pettarin. Measurer E. Pettarin. 1.0-m f/2.9
   reflector + CCD.
(N51) GROWTH India Telescope, IAO, Hanle  (N32.779244 E78.964610)  India.
(Q62) iTelescope Observatory, Siding Spring  (S31.273289 E149.064420)
   Australia/NSW. 0.50-m f/6.8 astrograph + CCD + focal reducer, 0.70-m f/6.6
   astrograph + CCD.

Orbital elements:  P11bVQM
   Perihelion 2020 Sep 6.200138 +/- 0.00118842 TT =  4:48:11 (JD 2459098.700138)
Epoch 2021 Feb  3.0 TT = JDT 2459248.5   Earth MOID: 0.2836   AutoNEOCP
M  38.18036485 +/- 0.0026461        (J2000 ecliptic)
n   0.25487583 +/- 1.57098e-5       Peri.  187.53496 +/- 0.0009108
a   2.46367608 +/- 0.000101232      Node   219.10461 +/- 0.0007992
e   0.4827962 +/- 1.88669e-5        Incl.    6.15495 +/- 0.0000525
P   3.87                   H 19.4   G  0.15   U  5.3  
q 1.27422243 +/- 6.126e-6    Q 3.65312974 +/- 0.000196579
From 55 observations 2020 June 28-2021 Feb. 3; mean residual 0".44
Residuals in arcseconds: 
200628 F51  .19+  .25+    210112 F51  .02+  .01-    210114 E10  .37+  .22+    
200628 F51  .18-  .62+    210113 807  .03+  .23-    210114 E10  .08+  .11+    
200628 F51  .23-  .24+    210113 807  .07-  .02-    210116 L01  .09+  .25+    
201016 G96  1.1-  .43-    210113 807  .02-  .01-    210116 L01  .45-  .03-    
201016 G96  .03-  .46-    210113 H21  .67-  .31+    210116 E10  .82+  1.5+    
201016 G96  .31+  .88-    210113 H21  .37-  .03-    210116 E10  .44-  .08+    
201115 G96  .61+  .82+    210113 H21  .11-  .06-    210116 E10  .65-  .69+    
201115 G96  .44-  .48+    210113 691  .13-  .55-    210118 807  .07-  .16+    
201221 G96  .78+  .21+    210113 691  .03-  .18+    210118 807  .08-  .48-    
201221 G96  1.0+  .42-    210113 568  .03-  .00     210118 807  .23+  .21-    
201221 G96  .07-  .05-    210113 568  .09-  .01-    210122 Q62  .06-  .02-    
210111 F51  .31+  .12-    210113 568  .02-  .00     210122 Q62  .19+  .25-    
210111 F51  .02+  .04+    210113 N51  .91-  .19-    210126 807  .32+  .22-    
210111 F51  .02+  .08-    210113 N51  1.8-  .25+    210126 807  .28+  .29-    
210112 G96  .84+  .34+    210113 N51  .81-  .62-    210126 807  .18+  .25-    
210112 G96  .61+  .81-    210114 568  .04+  .03-    210203 H36  .36+  .01+    
210112 G96  .83+  .15+    210114 568  .02-  .01-    210203 H36  .21-  .38+    
210112 F51  .00   .06-    210114 568  .05+  .05-    
210112 F51  .12+  .05+    210114 E10  .21+  .34+    

Ephemerides (geocentric):
Date (UTC) HH   RA              Dec         delta   r     elong  mag " sig PA
---- -- -- --  -------------   -----------  ------ ------ -----  --- ---- ---
2021 02 04 18  09 24 21.842   +02 19 11.30  .95881 1.9301 166.0 21.3 .295 107
2021 02 04 19  09 24 18.859   +02 19 31.53  .95900 1.9304 166.0 21.3 .296 107
2021 02 04 20  09 24 15.877   +02 19 51.79  .95919 1.9306 166.0 21.3 .297 107
2021 02 04 21  09 24 12.895   +02 20 12.05  .95938 1.9309 166.1 21.3 .297 107
2021 02 04 22  09 24 09.915   +02 20 32.34  .95956 1.9311 166.1 21.3 .298 107
2021 02 04 23  09 24 06.935   +02 20 52.64  .95975 1.9314 166.1 21.3 .299 107
2021 02 05 00  09 24 03.956   +02 21 12.95  .95994 1.9316 166.1 21.3 .300 107
2021 02 05 01  09 24 00.978   +02 21 33.28  .96013 1.9319 166.2 21.3 .301 107
2021 02 05 02  09 23 58.001   +02 21 53.62  .96033 1.9321 166.2 21.3 .301 107
2021 02 05 03  09 23 55.024   +02 22 13.98  .96052 1.9324 166.2 21.3 .302 107
2021 02 05 04  09 23 52.049   +02 22 34.35  .96071 1.9326 166.2 21.3 .303 107
2021 02 05 05  09 23 49.074   +02 22 54.74  .96090 1.9329 166.3 21.3 .304 107
2021 02 05 06  09 23 46.100   +02 23 15.14  .96109 1.9331 166.3 21.3 .304 107
2021 02 05 07  09 23 43.127   +02 23 35.56  .96129 1.9334 166.3 21.3 .305 107
2021 02 05 08  09 23 40.156   +02 23 55.99  .96148 1.9336 166.3 21.3 .306 107
2021 02 05 09  09 23 37.184   +02 24 16.43  .96167 1.9339 166.4 21.3 .307 107
2021 02 05 10  09 23 34.214   +02 24 36.89  .96187 1.9342 166.4 21.3 .308 107
2021 02 05 11  09 23 31.245   +02 24 57.37  .96206 1.9344 166.4 21.3 .308 107
2021 02 05 12  09 23 28.277   +02 25 17.86  .96226 1.9347 166.5 21.3 .309 107
2021 02 05 13  09 23 25.309   +02 25 38.36  .96245 1.9349 166.5 21.3 .310 107
